Location: Bailleul
(50.3375°N, 2.8513°E)
Time: 17:10:56
(UTC+00:00)

ERS-1 Rocket - Pass Details

Date: 19 April 2021
Orbit: 753 x 758 km, 98.4° (Epoch: 06 May)

Event Time Altitude Azimuth Distance (km) Brightness Sun altitude
Exits shadow 21:54:28 36° 216° (SW) 1,192 3.7 -23.4°
Maximum altitude 21:55:59 47° 261° (W) 1,002 3.7 -23.5°
Drops below altitude 10° 22:00:50 10° 335° (NNW) 2,289 6.5 -23.9°
Sets 22:03:14 0° 341° (NNW) 3,219 7.6 -24.1°
